OK1TBF-14 Weather Reports


Display with metric or nautical units.
time (UTC)temp
F
wind
direction
speed
MPH
gust
MPH
rain 1hr
in
rain 24hr
in
rain mn
in
humidity
%
barometer
mb
20260507220024 54 189 2.0 4.0 0.00 0.00 0.00 74 1015.0
20260507213003 54 250 1.0 4.0 0.00 0.00 0.00 73 1015.0
20260507210004 54 181 0.0 3.0 0.00 0.00 0.00 70 1014.7
20260507203003 54 318 2.0 4.0 0.00 0.00 0.00 71 1014.2
20260507200003 55 318 2.0 7.0 0.00 0.00 0.00 69 1013.8
20260507193024 56 317 5.0 9.0 0.00 0.00 0.00 67 1013.9
20260507190004 58 335 5.0 9.0 0.00 0.00 0.00 60 1013.2
20260507183003 59 333 4.0 10.0 0.00 0.00 0.00 57 1012.8
20260507180003 60 325 5.0 12.0 0.00 0.00 0.00 55 1012.4
20260507173003 61 331 4.0 9.0 0.00 0.00 0.00 51 1012.4
20260507170003 62 283 5.0 15.0 0.00 0.00 0.00 49 1012.0
20260507163003 62 306 7.0 14.0 0.00 0.00 0.00 53 1011.8
20260507160003 63 296 7.0 16.0 0.00 0.00 0.00 54 1011.6
20260507153024 65 306 7.0 15.0 0.00 0.00 0.00 50 1011.5
20260507150003 65 285 8.0 17.0 0.00 0.00 0.00 49 1011.2
20260507143003 65 270 8.0 16.0 0.00 0.00 0.00 52 1011.3
20260507140003 65 292 8.0 16.0 0.00 0.00 0.00 51 1011.6
20260507133003 66 273 8.0 14.0 0.00 0.00 0.00 49 1011.4
20260507130003 67 269 8.0 15.0 0.00 0.00 0.00 51 1011.4
20260507123003 66 278 6.0 19.0 0.00 0.00 0.00 53 1011.6
20260507120003 65 307 5.0 12.0 0.00 0.00 0.00 55 1011.6
20260507113004 66 217 5.0 10.0 0.00 0.00 0.00 52 1011.6
20260507110003 65 264 6.0 13.0 0.00 0.00 0.00 55 1011.4
20260507103003 64 254 6.0 11.0 0.00 0.00 0.00 56 1011.4
20260507100003 62 254 6.0 12.0 0.00 0.00 0.00 59 1011.4
20260507093003 62 257 9.0 14.0 0.00 0.00 0.00 64 1011.2
20260507090004 61 261 7.0 13.0 0.00 0.00 0.00 68 1011.0
20260507083003 60 251 8.0 15.0 0.00 0.00 0.00 68 1010.8
20260507080004 58 253 9.0 18.0 0.00 0.00 0.00 73 1011.0
20260507073003 57 252 7.0 14.0 0.00 0.00 0.00 76 1010.7
20260507070007 57 254 9.0 16.0 0.00 0.00 0.00 76 1010.4
20260507063003 56 250 8.0 15.0 0.00 0.00 0.00 80 1010.1
20260507060003 54 246 7.0 12.0 0.00 0.00 0.00 83 1009.7
20260507053004 54 222 4.0 7.0 0.00 0.00 0.00 87 1009.5
20260507050003 53 154 2.0 4.0 0.00 0.00 0.00 87 1009.1
20260507043004 53 125 2.0 3.0 0.00 0.00 0.00 89 1008.8
20260507040003 52 22 1.0 4.0 0.00 0.00 0.00 90 1008.1
20260507033003 52 261 3.0 6.0 0.00 0.00 0.00 88 1008.1
20260507030004 53 275 3.0 5.0 0.00 0.00 0.00 86 1008.1
20260507023003 53 90 6.0 8.0 0.00 0.00 0.00 82 1007.2
20260507020003 54 97 2.0 3.0 0.00 0.00 0.00 86 1007.4
20260507013003 54 162 2.0 4.0 0.00 0.00 0.00 86 1007.1
20260507010003 54 191 1.0 4.0 0.00 0.00 0.00 85 1006.9
20260507003003 54 81 4.0 8.0 0.00 0.00 0.00 85 1006.4
20260507000024 54 93 7.0 12.0 0.00 0.00 0.00 88 1005.8
20260506233003 53 7 3.0 8.0 0.00 0.00 0.00 86 1006.3
20260506230003 53 275 4.0 13.0 0.00 0.00 0.00 86 1006.4
20260506223003 56 231 4.0 9.0 0.00 0.00 0.00 79 1006.2